Weather in Al Ain

United Arab Emirates     24°13′26″N   55°46′00″E
temp.,
°C
wind,
m/s
gust,
m/s
humid.,
%
clouds,
%
prec.,
mm/h
press.,
hPa
HPBL,
m
17 may, mon
mon1701:00+29nne22250 0.0 100512
04:00+27ne22240 0.0 100411
07:00+30ene22160 0.0 100650
10:00+37se2260 0.0 10061159
13:00+40w1240 0.0 10032618
16:00+42wnw4440 0.0 10013491
19:00+36n38180 0.0 1002330
22:00+33n33230 0.0 100445
18 may, tue
tue1801:00+31nne23240 0.0 100322
04:00+30ene00240 0.0 100311
07:00+31nw22220 0.0 1006121
10:00+36nnw23150 0.0 1006910
13:00+42nnw5790 0.0 10034009
16:00+42nne5470 0.0 10014813
19:00+38n69100 0.0 1003211
22:00+34nne57120 0.0 100492
19 may, wed
wed1901:00+33ne33120 0.0 100322
04:00+31sse46170 0.0 100564
07:00+31sse24210 0.0 1006158
10:00+38sw34130 0.0 1006761
13:00+42w4380 0.0 10032908
16:00+43wnw4470 0.0 10024620
19:00+37nnw710120 0.0 1003309
22:00+33n33190 0.0 100542
20 may, thu
thu2001:00+32nne33180 0.0 100415
04:00+30n22190 0.0 100311
07:00+33sse22140 0.0 100552
10:00+39ssw4480 0.0 1006818
13:00+43sw5370 0.0 10042204
16:00+43wnw4460 0.0 10023755
19:00+38nw710130 0.0 1004248
22:00+33nne34250 0.0 100561
21 may, fri
fri2101:00+32n33220 0.0 100418
04:00+31nne22210 0.0 100411
07:00+34e22140 0.0 100639
10:00+42nw3460 0.0 1006822
13:00+45nw8750 0.0 10044755
16:00+45nnw88512 0.0 10025336
19:00+38nnw68130 0.0 1004154
22:00+35nne44190 0.0 100544